Regional Weather Roundup
Issued by NWS Newport/Morehead, NC

Current Version | Previous Version | Text Only | Print | Product List | Glossary Off
Versions: 1 2 3 4 5 6 7 8 9 10 11 12 13 14 15 16 17 18 19 20 21 22 23 24 25 26 27 28 29 30 31 32 33 34 35 36 37 38 39 40 41 42 43 44 45 46 47 48 49 50

827
ASUS42 KMHX 200925
RWRMHX
WEATHER ROUNDUP FOR EASTERN NORTH CAROLINA
NATIONAL WEATHER SERVICE NEWPORT/MOREHEAD CITY NC
400 AM EST TUE FEB 20 2018

NOTE: "FAIR" INDICATES FEW OR NO CLOUDS BELOW 12,000 FEET
WITH NO SIGNIFICANT WEATHER AND/OR OBSTRUCTIONS TO VISIBILITY

NCZ015>017-031-032-045>047-102-103-201000-
NORTH COAST

CITY           SKY/WX    TMP DP  RH WIND       PRES   REMARKS
EDENTON        CLOUDY    63  63 100 S7        30.42S FOG
ELIZABETH CITY FAIR      62  62 100 S6        30.41F
KITTY HAWK     PTSUNNY  N/A N/A N/A CALM      30.42S
MANTEO         CLOUDY    61  60  99 S8        30.44S

$$

NCZ045>047-081-094-103-104-201000-
CENTRAL COAST

CITY           SKY/WX    TMP DP  RH WIND       PRES   REMARKS
FRISCO         CLOUDY    63  62  97 S7        30.44F

$$

NCZ095-097-098-100-101-201000-
SOUTHERN COAST

CITY           SKY/WX    TMP DP  RH WIND       PRES   REMARKS
BEAUFORT       CLOUDY    64  63  96 S6        30.43S
CEDAR ISLAND   NOT AVBL
JACKSONVILLE   LGT RAIN  63  63 100 E3        30.42R FOG
PINEY ISLAND   NOT AVBL
WILMINGTON     FOG       65  65 100 S3        30.41S VSB 3/4


$$

NCZ011>013-027>030-043-044-078>080-089-090>093-098-201000-
COASTAL PLAIN

CITY           SKY/WX    TMP DP  RH WIND       PRES   REMARKS
AHOSKIE        FOG       51  51 100 CALM      30.42R VSB 1/4
CLINTON        CLOUDY    57  57 100 CALM      30.41F VSB 1/4
ELIZABETHTOWN  NOT AVBL
GOLDSBORO      FOG       55  55 100 CALM      30.40R VSB 1/4
GREENVILLE     FOG       59  59 100 S3        30.41F VSB 1/2
HAVELOCK       CLOUDY    64  64 100 SE5       30.43F
KENANSVILLE    FOG       64  64 100 CALM      30.42S VSB<1/4
KINSTON        FOG       60  60 100 CALM      30.42S VSB 3/4
NEW BERN       CLOUDY    63  63 100 S6        30.43S FOG
RICHLANDS      CLOUDY    64  64 100 SE3       30.42S FOG
ROCKY MOUNT    FOG       52  52 100 CALM      30.41F VSB 1/4
WASHINGTON     CLOUDY    64  63  97 CALM      30.42S FOG
WHITEVILLE     FOG       62  61  97 CALM      30.40S VSB 1/2

$$

AMZ130-135-150-152-154-156-158-170-250-252-270-ANZ085-086-088-633-658-670-201000-
MARINE OBSERVATIONS

STATION/POSITION TIME  TEMP    WIND        PRES    WAVE   SWELL
                       AIR SEA DIR/SP/G            HT/PER HT/PER
                 (UTC) (F)     (DEG/KT/KT) (MB)    (FT/S) (FT/S)
CHESAPEAKE LIGHT NOT AVBL
64 E VA BEACH    0850   55 50  200/ 14/ 14 1030.6    4/ 5   2/10
DUCK             0900   65 45  180/ 12/ 15 1029.5
2 E DUCK         0900      45                N/A     3/ 6   2/11
OREGON INLET     0854   57 49  170/  8/ 10 1030.6
13E OREGON INLT  0848      45                N/A     3/ 5   3/ 5
HATTERAS CG      0900   63 56  170/  5/  6 1030.7
DIAMOND BUOY     0910   72 72  170/ 16/ 19 1031.3
CAPE LOOKOUT     0900          160/  4/  4 1030.7
BEAUFORT LAB     0900   61 54  170/  4/  5 1030.5
30 SE NEW RVR IN 0808   70 68  170/  8/ 12 1030.3
30 SE NEW RVR IN 0900      68                N/A     4/ 6
27 SE WRIGHTSVLE 0808   68 65  190/ 12/ 19 1030.1
5 SE WRIGHTSVLE  0808   60 54  180/  6/  8 1029.8
225 S CAPE HAT   0850   72 74  110/ 12/ 14 1030.8    5/ 6   3/ 6
41 SE CHARLESTON 0910   71 68  150/  8/  8 1028.7

$$




USA.gov is the U.S. government's official web portal to all federal, state and local government web resources and services.